Vorticity
14 36 14 23 3 -11 26 -10 16 21 -4 -14 26 34 44 16 11 11 6 4 2 6 9 7 -1 2 2 9 6 9 8 -2 -4 0 70 24 -10 0 15 5 17 2 13 15
20 17 11 -10 41 11 23 -1 16 18 -1 24 1 17 34 54 4 9 9 6 6 7 6 5 13 16 10 6 10 6 3 4 -17 15 3 -6 -1 -9 11 -9 21 -2 5 9
10 7 13 39 23 28 23 3 3 -4 4 8 7 14 29 21 8 3 7 -1 -2 3 12 10 13 15 10 11 7 -4 7 9 4 -2 0 1 6 5 5 3 7 -3 -2 10
6 25 40 -11 42 -5 15 -9 -10 17 -29 11 5 3 21 41 13 1 10 4 6 5 3 4 1 4 16 11 13 8 6 10 6 11 8 7 16 6 0 8 13 4 5 10
25 13 22 4 22 9 35 12 17 13 11 -8 -2 19 10 47 21 8 -2 11 0 3 12 -0 2 4 8 13 13 9 7 5 7 8 9 13 7 7 10 9 4 11 10 11
40 49 -1 40 10 6 12 6 12 3 -6 1 -12 6 -14 22 5 20 20 26 6 7 6 14 6 3 -1 -3 -2 3 10 13 13 10 8 7 8 7 7 12 13 14 12 13
-8 19 20 17 16 15 3 -22 -0 -1 6 7 16 9 -3 8 2 13 2 11 10 10 12 15 9 6 12 14 10 -1 -5 -0 -1 3 9 12 11 9 8 9 10 15 8 8
17 -25 7 13 -8 33 -8 14 18 7 9 6 23 9 6 19 17 24 26 31 25 9 6 12 10 1 5 6 4 12 27 5 7 12 9 3 -1 13 16 11 8 7 11 7
7 4 16 0 24 -7 -16 10 18 4 13 -1 6 15 24 14 9 15 10 11 25 26 21 19 21 20 17 21 16 12 12 12 10 6 12 12 12 7 -0 1 3 14 11 2
4 -4 16 15 10 13 9 -1 8 13 6 8 11 5 5 27 1 8 8 5 4 4 6 4 12 12 13 14 12 13 14 16 13 9 9 6 6 6 3 7 6 12 12 7
-5 15 9 -3 39 10 8 5 13 11 16 12 7 8 12 8 15 7 7 8 6 8 9 12 12 14 17 24 14 13 13 16 17 14 10 8 6 6 8 12 15 12 3 6
17 9 3 15 21 -10 4 1 5 18 6 13 12 -1 28 23 11 7 5 11 16 17 10 8 5 6 12 20 20 15 7 10 12 8 11 14 17 18 13 7 13 11 -1 14
7 23 -2 3 5 7 9 6 4 3 2 11 13 10 2 3 9 10 11 8 6 3 1 -0 3 2 3 1 6 22 21 11 7 9 10 10 5 6 5 9 11 -7 3 3
10 10 25 20 25 20 13 6 3 2 5 9 -1 -7 -4 -4 -0 0 3 3 1 0 -0 2 1 1 2 4 6 3 -1 4 13 18 14 8 8 12 12 7 9 2 -0 1
12 5 3 5 5 7 11 14 14 6 4 5 15 5 2 8 6 0 5 2 1 1 1 -1 -1 0 0 -1 -5 6 10 4 2 -0 -1 10 15 8 8 3 11 4 4 8
8 14 7 3 11 13 7 2 2 6 15 18 15 12 18 12 14 12 8 5 14 13 4 3 2 2 1 3 2 -1 8 8 5 5 2 6 -0 10 10 7 6 6 5 9
5 5 9 6 5 7 20 13 17 17 17 14 15 13 13 12 14 18 16 19 23 19 15 14 15 14 13 14 13 15 14 13 14 15 14 12 10 6 9 11 10 11 14 9
7 6 8 8 9 12 12 1 7 8 7 5 3 9 11 11 11 12 14 16 16 16 17 18 19 19 17 14 13 11 11 9 9 12 17 12 15 11 8 11 14 15 14 9
7 6 6 10 10 -0 26 12 5 6 2 7 13 9 7 5 6 6 5 5 1 0 3 6 7 9 11 13 14 13 10 10 8 11 14 16 15 17 13 15 16 12 7 7
5 4 -0 9 8 4 6 7 -0 0 26 11 6 2 1 2 2 -1 -3 -2 -0 -1 -0 4 10 7 10 12 13 13 12 13 12 9 17 15 16 15 14 13 9 7 6 5
11 16 5 5 5 14 12 7 6 26 4 3 -1 -2 -4 -3 -2 1 2 2 3 5 8 7 13 10 11 12 12 13 17 15 19 13 13 14 13 11 10 8 7 6 5 5
7 9 12 19 4 21 18 11 11 -3 -4 -3 -1 0 1 2 4 6 7 5 7 8 5 4 10 15 7 12 12 12 15 21 19 16 11 13 13 7 7 8 6 6 6 5
11 -8 4 -6 9 0 0 1 1 1 1 3 5 5 4 7 9 16 23 28 21 20 23 21 10 10 7 7 10 13 15 20 23 19 11 6 4 11 12 9 7 5 6 6
21 -7 -0 8 21 15 10 2 4 4 6 7 7 7 9 12 16 18 21 20 27 19 15 26 27 13 12 -8 11 12 16 18 24 24 15 8 12 12 17 8 6 6 10 7
12 3 18 8 7 6 12 15 13 6 6 8 11 13 13 14 18 19 19 24 13 16 13 7 10 29 8 29 11 6 17 18 14 24 17 8 5 -2 8 18 6 12 24 9
8 8 8 2 1 7 7 6 6 6 7 8 12 12 14 17 15 15 14 19 27 31 10 18 27 35 22 14 3 4 13 20 14 12 19 17 -2 3 -0 23 19 30 5 8
Height
3002 3001 3001 3003 3009 3012 3016 3023 3027 3034 3041 3042 3050 3046 3049 3053 3058 3064 3070 3075 3081 3086 3092 3092 3099 3106 3110 3114 3118 3124 3126 3132 3136 3136 3139 3147 3148 3149 3152 3154 3156 3159 3161 3161
3003 2999 3001 3004 3008 3011 3018 3024 3029 3033 3040 3048 3048 3047 3040 3042 3053 3062 3069 3074 3079 3083 3089 3093 3098 3103 3108 3110 3115 3120 3124 3126 3130 3132 3134 3136 3138 3144 3147 3150 3149 3151 3154 3154
3001 3000 2999 3002 3007 3012 3018 3023 3028 3031 3038 3047 3047 3044 3045 3048 3054 3060 3068 3073 3078 3082 3087 3091 3097 3101 3104 3105 3112 3116 3118 3122 3125 3129 3132 3132 3134 3138 3141 3144 3146 3146 3148 3148
3000 2999 2999 3000 3009 3016 3019 3025 3028 3031 3040 3039 3048 3050 3047 3047 3051 3058 3065 3070 3076 3081 3085 3090 3093 3097 3102 3105 3109 3113 3115 3118 3120 3124 3125 3126 3125 3131 3136 3139 3138 3140 3142 3142
3003 3001 3003 3007 3012 3017 3023 3029 3034 3037 3041 3047 3050 3048 3047 3047 3050 3058 3064 3070 3074 3080 3085 3089 3092 3095 3099 3102 3106 3109 3110 3113 3116 3118 3120 3122 3122 3127 3129 3129 3131 3131 3133 3135
2997 3003 3007 3010 3015 3020 3023 3030 3037 3043 3046 3050 3050 3051 3048 3051 3054 3057 3064 3067 3071 3076 3081 3085 3088 3091 3096 3099 3102 3105 3106 3109 3110 3114 3116 3117 3119 3121 3123 3124 3126 3125 3125 3127
3009 3008 3013 3016 3019 3025 3029 3032 3038 3044 3046 3049 3049 3053 3054 3056 3055 3059 3063 3065 3068 3072 3077 3080 3083 3085 3089 3093 3096 3098 3101 3104 3105 3108 3109 3111 3114 3116 3117 3119 3119 3120 3121 3121
3016 3021 3022 3024 3026 3028 3032 3033 3034 3039 3043 3045 3049 3054 3053 3054 3057 3059 3060 3061 3064 3070 3074 3078 3079 3081 3083 3086 3089 3091 3094 3097 3098 3101 3103 3105 3108 3110 3111 3112 3112 3114 3115 3117
3022 3026 3028 3029 3030 3034 3035 3038 3039 3042 3048 3051 3056 3055 3054 3057 3059 3061 3062 3064 3066 3068 3072 3075 3077 3078 3078 3079 3082 3084 3087 3089 3091 3095 3096 3099 3102 3102 3104 3106 3107 3108 3110 3110
3026 3029 3032 3033 3035 3036 3038 3041 3044 3043 3051 3054 3056 3054 3056 3057 3059 3061 3062 3064 3067 3068 3070 3071 3072 3073 3075 3076 3078 3079 3080 3082 3085 3088 3090 3092 3094 3095 3096 3098 3100 3102 3104 3105
3028 3031 3038 3037 3037 3039 3042 3042 3041 3041 3046 3053 3057 3058 3057 3058 3060 3061 3061 3063 3064 3064 3065 3067 3068 3069 3070 3072 3073 3074 3075 3077 3079 3082 3084 3086 3087 3087 3089 3090 3092 3094 3096 3098
3032 3035 3038 3041 3042 3042 3043 3042 3042 3044 3051 3052 3054 3059 3057 3058 3059 3059 3060 3061 3062 3062 3063 3065 3066 3067 3067 3068 3070 3072 3072 3074 3075 3077 3079 3079 3080 3081 3083 3084 3086 3087 3090 3092
3035 3037 3039 3044 3047 3046 3047 3048 3048 3049 3051 3054 3057 3059 3059 3060 3060 3060 3060 3060 3060 3061 3062 3062 3063 3064 3066 3067 3066 3066 3066 3066 3068 3069 3070 3070 3072 3073 3074 3076 3077 3079 3082 3085
3037 3038 3039 3042 3043 3045 3047 3049 3050 3052 3055 3056 3056 3057 3057 3058 3058 3057 3057 3057 3057 3058 3058 3059 3060 3060 3062 3062 3063 3062 3060 3059 3060 3061 3062 3063 3065 3066 3068 3070 3071 3073 3076 3077
3040 3041 3042 3042 3044 3046 3047 3048 3049 3051 3053 3055 3057 3058 3058 3058 3056 3055 3054 3055 3054 3055 3056 3056 3057 3057 3057 3057 3057 3056 3056 3056 3056 3057 3057 3058 3058 3059 3060 3062 3065 3066 3068 3071
3041 3042 3044 3044 3045 3046 3047 3047 3048 3049 3051 3054 3055 3054 3054 3054 3052 3051 3051 3051 3050 3049 3050 3049 3049 3049 3049 3049 3049 3049 3050 3051 3050 3050 3051 3051 3052 3054 3055 3054 3056 3059 3060 3062
3042 3043 3044 3045 3045 3046 3049 3048 3049 3051 3051 3051 3051 3051 3049 3049 3048 3048 3048 3046 3046 3045 3044 3042 3041 3040 3040 3040 3041 3041 3041 3040 3040 3042 3042 3043 3044 3047 3047 3047 3048 3050 3053 3055
3043 3044 3045 3046 3045 3049 3047 3046 3047 3047 3048 3048 3048 3047 3046 3044 3045 3045 3043 3041 3040 3038 3037 3036 3034 3033 3032 3031 3031 3030 3030 3030 3031 3033 3033 3033 3035 3037 3038 3039 3041 3043 3046 3048
3043 3044 3045 3046 3046 3047 3045 3046 3047 3047 3048 3046 3045 3044 3043 3041 3041 3042 3037 3036 3034 3031 3029 3027 3025 3024 3023 3022 3020 3019 3021 3021 3021 3024 3025 3025 3026 3028 3030 3032 3034 3037 3039 3041
3043 3044 3047 3047 3047 3046 3045 3045 3045 3044 3044 3042 3042 3041 3039 3038 3035 3034 3031 3030 3028 3026 3024 3021 3018 3015 3014 3014 3012 3011 3012 3011 3012 3016 3017 3017 3018 3019 3022 3025 3028 3030 3032 3034
3042 3043 3044 3047 3048 3045 3043 3043 3043 3045 3047 3040 3039 3037 3035 3032 3029 3023 3022 3020 3018 3016 3014 3012 3010 3008 3007 3006 3004 3002 3002 3001 3004 3005 3007 3007 3009 3012 3016 3018 3021 3024 3026 3027
3041 3042 3043 3045 3045 3044 3041 3042 3043 3041 3039 3037 3034 3031 3028 3024 3020 3016 3012 3008 3007 3004 3001 3001 2997 2997 2998 2996 2994 2993 2992 2993 2992 2994 2997 2999 3002 3005 3008 3011 3014 3016 3019 3021
3041 3041 3041 3043 3041 3040 3040 3039 3038 3036 3033 3031 3027 3022 3017 3012 3007 3001 2996 2993 2988 2987 2985 2983 2983 2983 2987 2986 2984 2982 2982 2982 2983 2985 2988 2991 2995 2998 3001 3004 3007 3009 3011 3013
3037 3038 3038 3040 3038 3038 3037 3035 3034 3031 3028 3024 3020 3015 3009 3002 2996 2989 2984 2979 2974 2971 2970 2968 2967 2968 2971 2974 2975 2974 2973 2973 2973 2976 2980 2984 2987 2991 2993 2995 2998 3000 3002 3005
3035 3035 3035 3035 3035 3035 3034 3032 3029 3026 3022 3018 3013 3008 3001 2994 2988 2982 2975 2969 2964 2960 2958 2957 2955 2955 2959 2961 2964 2965 2965 2966 2967 2969 2973 2977 2981 2983 2985 2986 2988 2991 2993 2995
3029 3030 3032 3031 3032 3031 3029 3027 3023 3020 3015 3010 3005 2999 2993 2986 2979 2972 2966 2960 2954 2949 2946 2944 2942 2942 2947 2951 2954 2957 2959 2960 2962 2964 2967 2970 2973 2975 2976 2977 2978 2982 2984 2987